GFSGL_prec_sndepth_117.txt.gz
Snowfall_Accumulation
0.0 0.0 0.0 0.0 0.0 0.0 0.0 0.0 0.0 0.0 0.0 0.0 0.0 0.0 0.0 0.0 0.0 0.0 0.0 0.0 0.0 0.0 0.0 0.0 0.0 0.0 0.0 0.0 0.0 0.0 0.0 0.0 0.0 0.0 0.0 0.0 0.0 0.0 0.0 0.0 0.0 0.0 0.0
0.1 0.0 0.0 0.0 0.0 0.0 0.0 0.0 0.0 0.0 0.0 0.0 0.0 0.0 0.0 0.0 0.0 0.0 0.0 0.0 0.0 0.0 0.0 0.0 0.0 0.0 0.0 0.0 0.0 0.0 0.0 0.0 0.0 0.0 0.0 0.0 0.0 0.0 0.0 0.0 0.0 0.0 0.0
0.0 0.0 0.0 0.0 0.0 0.0 0.0 0.0 0.0 0.0 0.0 0.0 0.0 0.0 0.0 0.0 0.0 0.0 0.0 0.0 0.0 0.0 0.0 0.0 0.0 0.0 0.0 0.0 0.0 0.0 0.0 0.0 0.0 0.0 0.0 0.0 0.0 0.0 0.0 0.0 0.0 0.0 0.0
0.1 0.0 0.0 0.0 0.0 0.0 0.0 0.0 0.0 0.0 0.0 0.0 0.0 0.0 0.0 0.0 0.0 0.0 0.0 0.0 0.0 0.0 0.0 0.0 0.0 0.0 0.0 0.0 0.0 0.0 0.0 0.0 0.0 0.0 0.0 0.0 0.0 0.0 0.0 0.0 0.0 0.0 0.0
1.6 0.5 0.1 0.0 0.0 0.0 0.0 0.0 0.0 0.0 0.0 0.0 0.0 0.0 0.0 0.0 0.0 0.0 0.0 0.0 0.0 0.0 0.0 0.0 0.0 nan nan nan 0.0 0.0 0.0 0.0 0.0 0.0 0.0 0.0 0.0 0.0 0.0 0.0 0.0 0.0 0.0
3.2 3.2 0.6 0.5 0.1 0.0 0.1 0.0 0.0 0.0 0.0 0.0 0.0 0.0 0.0 0.0 nan nan 0.0 0.0 0.0 0.0 0.0 0.0 0.0 0.0 0.0 nan nan nan nan 0.0 0.0 0.0 0.0 0.0 0.0 0.0 0.0 0.0 0.0 0.0 0.1
1.7 6.0 3.3 1.9 3.8 1.9 0.6 1.1 0.7 0.4 0.2 0.2 0.2 0.1 0.2 0.1 nan nan nan 0.0 0.0 0.0 0.0 0.0 0.0 0.0 nan 0.0 nan nan nan nan nan 0.0 0.0 0.0 0.0 0.0 0.0 0.0 0.0 0.0 0.2
0.4 1.4 4.1 4.1 5.4 6.5 3.5 4.0 4.8 3.1 2.9 1.2 1.3 0.9 0.7 0.5 nan nan nan 0.1 0.4 0.0 0.0 0.0 0.0 0.0 0.0 0.0 0.0 0.0 0.0 0.1 0.1 0.0 0.2 0.9 0.8 0.1 0.0 0.0 0.0 0.1 0.5
0.3 0.5 0.6 2.5 5.2 4.9 5.5 5.6 4.2 3.9 4.1 3.6 1.7 1.9 1.2 0.7 nan nan 0.4 0.5 0.5 0.5 0.2 0.2 0.0 0.0 nan nan 0.0 0.2 1.8 5.5 nan nan nan nan nan nan nan 0.3 0.7 0.6 2.6
1.2 0.9 0.4 0.3 0.8 1.5 2.5 4.6 4.6 3.1 3.6 3.1 1.9 1.7 nan 1.8 nan nan nan 0.3 0.6 0.8 0.7 0.6 nan 0.0 nan nan 0.0 0.1 1.1 6.6 4.8 5.0 5.5 6.2 nan nan nan 0.9 0.7 1.0 3.4
2.1 0.9 1.1 0.9 0.8 0.7 0.7 1.0 1.1 1.1 1.5 2.0 2.6 2.7 2.4 1.9 2.3 nan nan 2.3 3.3 3.0 4.0 4.7 4.1 nan nan nan nan 3.0 8.5 10.2 8.9 9.4 9.4 10.2 9.1 8.6 8.6 8.3 6.3 4.2 4.6
4.2 4.3 3.7 2.9 2.5 1.8 1.5 1.6 1.3 1.1 1.0 1.2 1.0 1.1 1.4 1.3 nan nan nan nan nan 3.3 5.7 5.1 6.2 nan nan nan 3.5 nan nan 3.8 10.2 11.2 10.6 10.9 9.5 9.0 8.9 9.1 8.8 8.2 8.0
5.8 6.5 6.4 4.8 5.3 4.2 3.7 3.6 3.1 2.0 2.5 3.0 2.5 3.1 3.4 2.2 2.6 nan nan nan nan 3.3 5.0 9.2 nan nan nan 1.5 nan nan 3.4 6.5 7.8 9.4 9.6 10.5 9.2 7.1 4.9 5.5 4.6 5.0 6.0
4.2 4.3 5.7 6.8 6.1 6.6 5.3 5.1 5.4 5.1 5.6 5.4 5.1 6.0 5.2 4.6 4.5 3.9 4.2 4.0 2.1 4.7 1.9 5.1 3.2 4.2 3.1 4.6 5.1 6.3 6.9 6.8 7.2 7.7 6.7 5.1 3.9 3.4 3.0 2.6 3.3 3.4 4.0
2.1 2.7 2.4 2.3 3.6 4.2 5.1 5.7 5.0 6.2 5.5 5.2 6.8 6.5 9.7 11.1 12.8 9.2 9.1 8.0 6.5 5.9 4.3 5.9 5.2 4.2 4.4 4.5 4.5 4.6 3.9 3.8 5.1 6.0 5.5 4.7 3.8 2.8 2.5 1.7 2.3 3.3 4.0
0.9 1.6 2.3 2.2 2.5 3.0 3.3 4.0 nan nan nan nan nan 5.0 8.6 nan nan nan nan nan nan nan 4.2 6.7 11.4 11.4 8.2 6.2 6.6 6.1 5.4 4.3 4.5 4.1 4.7 3.5 3.7 4.5 4.0 3.5 3.3 3.8 3.6
0.2 0.1 0.9 1.1 1.3 2.1 2.5 2.3 4.0 6.1 nan nan nan nan nan nan nan nan nan nan nan nan 7.9 8.5 12.1 12.0 7.4 4.4 4.8 4.6 5.8 5.3 2.6 3.5 3.9 4.5 4.4 3.7 4.3 3.6 3.7 3.2 3.1
0.8 1.1 1.9 2.2 2.5 3.5 3.9 4.6 4.9 6.2 8.4 8.3 nan nan nan nan nan nan nan nan 3.6 nan 3.6 5.7 8.6 7.0 4.0 3.6 3.6 3.9 3.8 4.8 4.8 4.0 5.9 8.2 9.5 6.3 5.8 4.2 3.7 5.6 3.0
1.4 2.5 3.5 4.6 5.8 5.9 5.6 5.5 5.1 6.2 7.4 7.5 6.1 3.6 3.6 nan nan nan nan 5.5 5.7 3.8 2.5 2.2 4.3 3.6 2.7 1.6 6.5 7.6 10.2 8.9 9.0 12.1 6.8 7.2 15.9 3.9 4.7 3.7 4.0 3.0 2.8
4.5 3.7 5.1 6.3 6.5 6.9 6.6 5.8 4.9 5.2 6.0 6.3 6.0 6.4 3.8 2.5 10.8 15.6 14.0 15.0 10.0 4.9 4.6 2.7 2.7 3.1 4.8 4.4 9.2 15.1 12.6 12.1 8.8 6.0 12.9 18.8 16.1 7.1 6.9 5.9 7.1 7.0 2.2
4.1 4.1 1.6 3.7 3.6 3.5 4.0 4.6 3.5 4.6 4.9 4.4 7.1 10.3 2.3 4.0 6.8 6.7 5.6 9.7 8.1 5.0 8.2 4.1 5.7 7.2 8.7 9.1 4.2 8.8 3.7 7.8 7.1 7.2 6.3 6.4 30.7 8.7 4.5 4.7 5.4 4.0 2.5
2.4 2.3 2.3 2.9 2.5 4.4 3.2 2.4 3.8 3.8 3.7 4.6 5.6 14.3 3.6 7.4 5.2 5.4 5.4 9.4 11.5 6.0 4.9 5.9 4.4 4.1 4.6 5.4 5.9 17.7 13.5 18.1 13.4 9.7 8.7 8.6 6.1 6.0 5.4 5.3 7.1 7.6 4.0
2.2 3.8 2.2 1.8 2.1 5.6 6.0 3.1 5.6 6.9 6.1 8.3 5.8 5.7 5.6 9.1 8.9 6.0 7.7 12.6 6.7 8.2 7.2 5.9 11.0 6.7 6.8 9.5 9.4 7.9 10.5 9.0 9.1 10.7 13.3 12.9 7.0 7.1 9.5 8.6 5.8 8.3 8.2
2.5 4.0 2.5 5.1 7.1 4.4 10.3 14.7 9.6 7.3 6.6 9.5 15.4 11.8 9.1 9.3 18.6 14.8 15.3 17.8 11.7 15.2 15.2 15.8 7.5 6.0 5.5 16.1 16.6 9.3 5.9 10.4 8.6 9.5 9.8 12.5 8.0 5.5 9.2 7.1 6.6 8.2 9.6
6.2 9.2 9.3 6.5 9.5 12.3 16.5 12.8 14.0 15.2 13.7 16.2 19.1 14.8 5.5 8.0 8.1 20.1 16.2 11.9 10.1 16.3 8.8 11.2 9.3 6.8 8.0 7.4 7.0 4.0 5.4 4.6 9.1 5.1 10.9 8.1 9.8 9.0 9.1 7.6 8.9 7.0 8.4
6.3 4.8 6.0 6.0 6.8 11.1 13.3 19.9 20.2 17.7 17.1 19.3 19.0 19.3 14.3 10.1 9.5 17.8 12.9 12.0 10.3 9.7 9.1 9.9 8.9 7.1 6.4 6.6 4.5 5.6 5.4 5.0 13.7 5.4 17.5 9.1 12.6 11.1 10.3 8.8 6.9 9.2 5.9

GFSGL_prec_sndepth_120.txt.gz
Snowfall_Accumulation
0.0 0.0 0.0 0.0 0.0 0.0 0.0 0.0 0.0 0.0 0.0 0.0 0.0 0.0 0.0 0.0 0.0 0.0 0.0 0.0 0.0 0.0 0.0 0.0 0.0 0.0 0.0 0.0 0.0 0.0 0.0 0.0 0.0 0.0 0.0 0.0 0.0 0.0 0.0 0.0 0.0 0.0 0.0
0.1 0.0 0.0 0.0 0.0 0.0 0.0 0.0 0.0 0.0 0.0 0.0 0.0 0.0 0.0 0.0 0.0 0.0 0.0 0.0 0.0 0.0 0.0 0.0 0.0 0.0 0.0 0.0 0.0 0.0 0.0 0.0 0.0 0.0 0.0 0.0 0.0 0.0 0.0 0.0 0.0 0.0 0.0
0.5 0.0 0.0 0.0 0.0 0.0 0.0 0.0 0.0 0.0 0.0 0.0 0.0 0.0 0.0 0.0 0.0 0.0 0.0 0.0 0.0 0.0 0.0 0.0 0.0 0.0 0.0 0.0 0.0 0.0 0.0 0.0 0.0 0.0 0.0 0.0 0.0 0.0 0.0 0.0 0.0 0.0 0.0
1.3 0.3 0.1 0.0 0.0 0.0 0.0 0.0 0.0 0.0 0.0 0.0 0.0 0.0 0.0 0.0 0.0 0.0 0.0 0.0 0.0 0.0 0.0 0.0 0.0 0.0 0.0 0.0 0.0 0.0 0.0 0.0 0.0 0.0 0.0 0.0 0.0 0.0 0.0 0.0 0.0 0.0 0.0
2.8 2.0 0.8 0.1 0.0 0.0 0.0 0.0 0.0 0.1 0.1 0.0 0.0 0.0 0.0 0.0 0.0 0.0 0.0 0.0 0.0 0.0 0.0 0.0 0.0 nan nan nan 0.0 0.0 0.0 0.0 0.0 0.0 0.0 0.0 0.0 0.0 0.0 0.0 0.0 0.0 0.0
4.2 4.9 2.0 1.4 0.2 0.0 0.1 0.1 0.1 0.1 0.1 0.1 0.1 0.0 0.0 0.0 nan nan 0.0 0.0 0.0 0.0 0.0 0.0 0.0 0.0 0.0 nan nan nan nan 0.0 0.0 0.0 0.0 0.0 0.0 0.0 0.0 0.0 0.0 0.0 0.1
2.0 6.6 4.5 3.4 5.6 2.5 0.6 1.3 0.8 0.5 0.2 0.3 0.3 0.1 0.3 0.3 nan nan nan 0.0 0.0 0.1 0.0 0.0 0.0 0.0 nan 0.0 nan nan nan nan nan 0.0 0.0 0.0 0.0 0.0 0.0 0.0 0.0 0.0 0.1
0.3 1.4 4.0 4.5 6.5 7.7 4.4 4.9 5.3 3.5 3.5 1.7 1.9 1.6 1.0 0.8 nan nan nan 1.2 0.8 1.0 0.9 0.7 0.3 0.1 0.0 0.0 0.0 0.0 0.0 0.0 0.1 0.0 0.2 0.8 0.7 0.1 0.0 0.0 0.0 0.1 0.4
0.2 0.4 0.5 2.4 5.2 5.3 6.9 7.5 5.8 5.1 5.1 4.9 2.5 2.8 2.6 1.8 nan nan 1.6 1.7 1.4 1.2 1.2 1.3 1.0 0.8 nan nan 0.0 0.2 1.6 5.2 nan nan nan nan nan nan nan 0.2 0.6 0.5 2.4
1.1 0.8 0.3 0.2 0.7 1.4 2.5 4.6 4.9 3.4 5.0 4.0 3.4 3.2 nan 3.3 nan nan nan 0.9 1.3 1.7 1.5 1.4 nan 0.9 nan nan 0.3 0.5 1.1 6.6 4.7 4.8 5.3 6.0 nan nan nan 0.8 0.7 0.9 3.2
2.0 0.8 1.0 0.8 0.8 0.7 0.6 0.9 1.0 1.1 1.4 2.0 2.6 2.9 2.7 2.6 3.1 nan nan 3.6 4.7 4.0 5.0 5.8 5.0 nan nan nan nan 3.5 9.0 10.5 9.0 9.5 9.4 10.2 9.1 8.6 8.6 8.3 6.3 4.3 4.4
4.2 4.3 3.6 2.9 2.4 1.7 1.5 1.5 1.2 1.0 0.9 1.2 1.0 1.1 1.4 1.3 nan nan nan nan nan 3.7 6.1 6.0 7.0 nan nan nan 3.8 nan nan 3.9 10.3 11.3 10.5 10.8 9.5 9.0 8.9 9.1 8.7 8.1 8.2
5.7 6.4 6.3 4.7 5.2 4.1 3.6 3.5 3.1 1.9 2.5 2.9 2.5 3.1 3.4 2.2 2.6 nan nan nan nan 3.3 4.8 9.0 nan nan nan 1.5 nan nan 3.4 6.5 7.9 9.4 9.7 10.6 9.2 7.1 4.9 5.5 4.5 5.0 6.0
4.1 4.3 5.6 6.7 5.9 6.5 5.2 5.0 5.3 5.0 5.5 5.4 5.1 5.9 5.2 4.6 4.5 3.9 4.2 4.0 2.0 4.5 1.9 4.9 3.2 4.1 3.0 4.5 5.0 6.1 6.6 6.6 7.2 7.7 6.7 5.1 3.9 3.4 3.1 2.6 3.3 3.6 4.1
1.8 2.6 2.1 2.0 3.3 3.9 5.0 5.6 4.9 6.1 5.4 5.2 6.7 6.5 9.7 11.0 12.7 9.1 9.0 7.9 6.4 5.8 4.2 5.8 5.1 4.2 4.4 4.4 4.4 4.5 3.8 3.7 5.0 6.0 5.6 4.7 3.8 2.8 2.5 1.7 2.3 3.4 4.2
0.7 1.4 2.0 2.0 2.3 2.7 3.1 3.7 nan nan nan nan nan 5.0 8.5 nan nan nan nan nan nan nan 4.1 6.7 11.3 11.3 8.1 6.2 6.6 6.1 5.4 4.2 4.5 4.1 4.6 3.5 3.8 4.5 4.0 3.5 3.3 3.8 3.7
0.1 0.1 0.8 1.0 1.1 1.9 2.3 2.2 3.9 5.9 nan nan nan nan nan nan nan nan nan nan nan nan 7.8 8.4 12.0 11.9 7.3 4.4 4.7 4.5 5.8 5.3 2.6 3.5 3.9 4.5 4.4 3.8 4.3 3.6 3.8 3.3 3.2
0.7 1.1 1.8 2.1 2.4 3.4 3.7 4.5 4.8 6.1 8.3 8.2 nan nan nan nan nan nan nan nan 3.6 nan 3.6 5.7 8.5 6.9 3.9 3.5 3.6 3.8 3.8 4.7 4.8 4.0 5.9 8.2 9.5 6.3 5.8 4.3 3.8 5.7 3.1
1.2 2.4 3.4 4.6 5.7 5.8 5.6 5.4 5.0 6.1 7.3 7.4 6.0 3.5 3.6 nan nan nan nan 5.4 5.7 3.7 2.5 2.2 4.3 3.6 2.6 1.6 6.5 7.5 10.2 8.9 9.0 12.1 6.8 7.2 15.9 4.0 4.7 3.8 4.0 3.0 2.9
4.3 3.7 5.0 6.2 6.4 6.8 6.5 5.7 4.9 5.1 5.9 6.2 5.9 6.3 3.8 2.5 10.7 15.5 13.9 14.9 9.9 4.8 4.6 2.7 2.7 3.1 4.7 4.4 9.1 15.0 12.5 12.1 8.7 6.0 12.9 18.7 16.0 7.0 6.8 5.8 7.0 7.0 2.2
4.0 3.9 1.6 3.7 3.5 3.5 3.9 4.6 3.5 4.5 4.9 4.3 7.0 10.2 2.3 4.0 6.8 6.7 5.5 9.7 8.0 4.9 8.2 4.1 5.6 7.2 8.7 9.0 4.2 8.7 3.7 7.7 7.0 7.2 6.4 6.4 30.5 8.7 4.5 4.7 5.4 4.0 2.5
2.3 2.2 2.2 2.8 2.4 4.3 3.2 2.4 3.7 3.7 3.7 4.5 5.5 14.2 3.6 7.4 5.2 5.3 5.4 9.3 11.5 6.0 4.9 5.8 4.5 4.0 4.6 5.4 6.0 17.7 13.4 18.1 13.3 9.7 8.7 8.7 6.1 6.0 5.4 5.3 7.1 7.6 4.0
2.1 3.7 2.1 1.7 2.1 5.6 6.0 3.1 5.5 6.8 6.1 8.3 5.8 5.7 5.6 9.1 8.9 6.0 7.7 12.6 6.7 8.2 7.2 5.9 11.0 6.7 6.7 9.4 9.4 7.9 10.5 9.0 9.2 10.7 13.3 13.0 7.1 7.1 9.5 8.6 5.8 8.2 8.1
2.5 3.9 2.5 5.0 7.1 4.4 10.3 14.7 9.6 7.3 6.6 9.5 15.4 11.8 9.1 9.3 18.6 14.8 15.4 17.9 11.7 15.2 15.2 15.7 7.5 6.1 5.5 16.1 16.6 9.3 5.8 10.4 8.6 9.5 9.8 12.5 8.0 5.5 9.1 7.1 6.6 8.2 9.6
6.2 9.2 9.3 6.4 9.5 12.3 16.5 12.8 13.9 15.3 13.7 16.2 19.2 14.9 5.7 8.1 8.1 20.0 16.3 12.0 10.1 16.3 8.8 11.2 9.4 6.7 8.0 7.4 7.0 3.9 5.4 4.6 9.0 5.1 10.8 8.2 9.8 9.1 9.1 7.6 8.8 7.0 8.4
6.3 4.8 6.0 6.0 6.8 11.1 13.3 19.9 20.2 17.7 17.2 19.3 19.0 19.4 14.4 10.2 9.6 17.9 13.0 12.0 10.4 9.7 9.0 9.9 8.9 7.1 6.4 6.6 4.8 5.6 5.4 5.0 13.7 5.4 17.5 9.2 12.5 11.1 10.3 8.8 6.9 9.2 5.9

GFSGL_prec_sndepth_123.txt.gz
Snowfall_Accumulation
0.0 0.0 0.0 0.0 0.0 0.0 0.0 0.0 0.0 0.0 0.0 0.0 0.0 0.0 0.0 0.0 0.0 0.0 0.0 0.0 0.0 0.0 0.0 0.0 0.0 0.0 0.0 0.0 0.0 0.0 0.0 0.0 0.0 0.0 0.0 0.0 0.0 0.0 0.0 0.0 0.0 0.0 0.0
0.2 0.0 0.0 0.0 0.0 0.0 0.0 0.0 0.0 0.0 0.0 0.0 0.0 0.0 0.0 0.0 0.0 0.0 0.0 0.0 0.0 0.0 0.0 0.0 0.0 0.0 0.0 0.0 0.0 0.0 0.0 0.0 0.0 0.0 0.0 0.0 0.0 0.0 0.0 0.0 0.0 0.0 0.0
0.7 0.2 0.2 0.0 0.0 0.0 0.0 0.0 0.0 0.0 0.0 0.0 0.0 0.0 0.0 0.0 0.0 0.0 0.0 0.0 0.0 0.0 0.0 0.0 0.0 0.0 0.0 0.0 0.0 0.0 0.0 0.0 0.0 0.0 0.0 0.0 0.0 0.0 0.0 0.0 0.0 0.0 0.0
1.8 0.9 0.4 0.2 0.1 0.1 0.0 0.0 0.0 0.0 0.0 0.0 0.0 0.0 0.0 0.0 0.0 0.0 0.0 0.0 0.0 0.0 0.0 0.0 0.0 0.0 0.0 0.0 0.0 0.0 0.0 0.0 0.0 0.0 0.0 0.0 0.0 0.0 0.0 0.0 0.0 0.0 0.0
3.0 2.5 2.5 0.8 0.2 0.2 0.1 0.0 0.0 0.1 0.1 0.1 0.0 0.0 0.0 0.0 0.0 0.0 0.0 0.0 0.0 0.0 0.0 0.0 0.0 nan nan nan 0.0 0.0 0.0 0.0 0.0 0.0 0.0 0.0 0.0 0.0 0.0 0.0 0.0 0.0 0.0
4.8 6.0 3.0 2.4 1.6 0.6 0.2 0.1 0.3 0.2 0.5 1.6 0.2 0.3 1.0 0.7 nan nan 0.0 0.1 0.0 0.0 0.0 0.0 0.0 0.0 0.0 nan nan nan nan 0.0 0.0 0.0 0.0 0.0 0.0 0.0 0.0 0.0 0.0 0.0 0.1
2.0 6.7 4.9 4.2 6.9 4.2 1.1 1.5 1.4 1.5 0.9 0.9 1.0 1.2 1.5 1.1 nan nan nan 1.2 0.9 0.4 0.3 0.1 0.1 0.0 nan 0.0 nan nan nan nan nan 0.0 0.0 0.0 0.0 0.0 0.0 0.0 0.0 0.0 0.1
0.3 1.4 4.0 4.5 6.7 8.3 5.6 5.8 6.0 3.9 4.1 2.1 2.3 2.2 1.6 1.9 nan nan nan 3.3 2.4 2.4 1.9 1.6 1.2 0.8 0.3 0.0 0.0 0.0 0.3 0.6 0.6 0.2 0.2 0.8 0.7 0.1 0.0 0.0 0.0 0.0 0.4
0.2 0.4 0.5 2.4 5.2 5.3 6.9 7.9 6.2 6.0 5.9 5.7 3.1 3.4 3.2 2.6 nan nan 1.9 2.6 3.7 4.2 2.9 2.4 2.0 2.6 nan nan 1.0 1.3 2.8 5.7 nan nan nan nan nan nan nan 0.2 0.6 0.5 2.2
1.1 0.8 0.3 0.2 0.7 1.4 2.5 4.6 4.9 3.4 5.1 4.0 3.7 3.5 nan 4.2 nan nan nan 1.7 2.4 3.1 2.9 2.6 nan 1.8 nan nan 0.6 1.0 1.9 7.3 5.2 5.0 5.4 6.1 nan nan nan 0.8 0.7 0.9 3.1
2.0 0.7 1.0 0.7 0.8 0.6 0.6 0.9 1.0 1.0 1.4 2.0 2.6 2.9 2.8 2.8 3.2 nan nan 4.0 5.3 4.4 5.3 6.1 5.5 nan nan nan nan 4.2 10.0 11.2 9.5 10.1 9.8 10.3 9.1 8.6 8.6 8.3 6.3 4.3 4.4
4.2 4.3 3.6 2.9 2.4 1.7 1.5 1.5 1.2 1.0 0.9 1.2 1.0 1.1 1.4 1.3 nan nan nan nan nan 3.7 6.2 6.1 7.1 nan nan nan 3.9 nan nan 4.0 11.2 12.1 11.2 11.5 10.0 9.4 9.0 9.2 8.8 8.1 8.2
5.7 6.4 6.3 4.7 5.2 4.1 3.6 3.5 3.1 1.9 2.5 2.9 2.5 3.1 3.4 2.2 2.5 nan nan nan nan 3.3 4.7 9.0 nan nan nan 1.5 nan nan 3.4 6.5 7.9 9.4 9.7 10.7 9.3 7.2 4.9 5.5 4.5 5.0 6.0
4.1 4.3 5.6 6.7 5.9 6.5 5.2 5.0 5.3 5.0 5.5 5.4 5.1 5.9 5.2 4.6 4.5 3.8 4.1 3.9 2.0 4.5 1.9 4.9 3.2 4.1 3.0 4.4 5.0 6.1 6.6 6.5 7.2 7.8 6.8 5.1 3.9 3.4 3.1 2.6 3.3 3.5 4.1
1.8 2.6 2.1 2.0 3.3 3.9 5.1 5.6 4.9 6.1 5.4 5.2 6.7 6.5 9.6 11.0 12.7 9.0 9.0 7.8 6.3 5.8 4.2 5.7 5.1 4.1 4.3 4.4 4.4 4.5 3.8 3.7 5.0 6.0 5.5 4.7 3.8 2.8 2.5 1.7 2.3 3.4 4.2
0.7 1.3 2.0 2.0 2.3 2.7 3.0 3.7 nan nan nan nan nan 4.9 8.5 nan nan nan nan nan nan nan 4.1 6.7 11.3 11.3 8.1 6.1 6.5 6.1 5.3 4.2 4.5 4.1 4.6 3.5 3.8 4.5 4.0 3.5 3.3 3.8 3.7
0.1 0.1 0.8 1.0 1.1 1.9 2.3 2.2 3.9 5.9 nan nan nan nan nan nan nan nan nan nan nan nan 7.8 8.4 11.9 11.8 7.2 4.4 4.7 4.5 5.9 5.3 2.6 3.5 3.9 4.5 4.4 3.8 4.3 3.6 3.8 3.3 3.2
0.7 1.1 1.8 2.1 2.4 3.4 3.7 4.5 4.8 6.1 8.3 8.2 nan nan nan nan nan nan nan nan 3.5 nan 3.5 5.7 8.6 6.9 3.9 3.5 3.6 3.9 3.9 4.7 4.8 4.0 5.9 8.2 9.6 6.4 5.8 4.3 3.8 5.7 3.2
1.2 2.4 3.4 4.6 5.7 5.8 5.6 5.4 5.0 6.1 7.2 7.4 6.0 3.5 3.6 nan nan nan nan 5.4 5.7 3.7 2.4 2.2 4.3 3.6 2.6 1.5 6.5 7.5 10.1 8.8 9.0 12.0 6.8 7.1 15.9 4.1 4.8 3.8 4.1 3.0 2.9
4.3 3.7 5.0 6.2 6.4 6.8 6.5 5.7 4.8 5.1 5.9 6.2 5.9 6.3 3.7 2.5 10.7 15.5 13.9 14.9 9.9 4.8 4.6 2.7 2.7 3.2 4.7 4.4 9.1 15.0 12.5 12.1 8.7 5.9 12.9 18.7 16.0 7.0 6.8 5.8 7.0 6.9 2.2
4.0 3.9 1.6 3.7 3.5 3.5 3.9 4.6 3.5 4.5 4.9 4.3 7.0 10.2 2.3 4.0 6.8 6.7 5.5 9.7 8.0 5.0 8.2 4.1 5.6 7.2 8.7 9.0 4.2 8.7 3.7 7.7 7.0 7.2 6.4 6.4 30.5 8.8 4.6 4.7 5.4 4.0 2.4
2.3 2.2 2.2 2.8 2.4 4.3 3.2 2.4 3.7 3.7 3.7 4.5 5.5 14.2 3.6 7.4 5.2 5.3 5.4 9.3 11.4 6.0 4.9 5.8 4.5 4.0 4.6 5.4 6.0 17.7 13.4 18.0 13.3 9.7 8.7 8.7 6.2 6.0 5.6 5.3 7.1 7.6 4.0
2.1 3.7 2.1 1.7 2.1 5.6 6.0 3.1 5.5 6.8 6.1 8.3 5.8 5.7 5.6 9.2 8.9 6.0 7.8 12.6 6.7 8.2 7.2 5.9 11.0 6.7 6.7 9.4 9.4 7.9 10.5 9.0 9.2 10.7 13.3 13.0 7.2 7.1 9.5 8.6 5.8 8.2 8.1
2.5 3.9 2.5 5.0 7.1 4.4 10.3 14.7 9.6 7.3 6.6 9.6 15.4 11.8 9.1 9.4 18.5 14.8 15.5 17.9 11.7 15.2 15.2 15.7 7.5 6.1 5.5 16.1 16.6 9.3 5.8 10.4 8.6 9.5 9.8 12.6 8.1 5.5 9.1 7.1 6.6 8.2 9.6
6.2 9.2 9.3 6.4 9.5 12.3 16.5 12.8 13.9 15.2 13.7 16.2 19.2 14.9 5.7 8.1 8.1 20.1 16.5 12.0 10.2 16.3 8.8 11.2 9.4 6.8 8.0 7.4 7.0 3.9 5.4 4.6 9.0 5.1 10.8 8.2 9.8 9.2 9.1 7.6 8.9 7.0 8.4
6.3 4.8 6.0 6.0 6.8 11.1 13.3 19.9 20.2 17.7 17.1 19.3 19.0 19.4 14.4 10.2 9.6 17.9 13.0 12.1 10.6 10.0 9.1 9.9 8.9 7.1 6.4 6.6 4.8 5.6 5.4 5.0 13.7 5.4 17.4 9.2 12.5 11.1 10.3 8.8 6.9 9.3 5.9

GFSGL_prec_sndepth_126.txt.gz
Snowfall_Accumulation
0.1 0.0 0.0 0.0 0.0 0.0 0.0 0.0 0.0 0.0 0.0 0.0 0.0 0.0 0.0 0.0 0.0 0.0 0.0 0.0 0.0 0.0 0.0 0.0 0.0 0.0 0.0 0.0 0.0 0.0 0.0 0.0 0.0 0.0 0.0 0.0 0.0 0.0 0.0 0.0 0.0 0.0 0.0
0.2 0.1 0.1 0.0 0.0 0.0 0.0 0.0 0.0 0.0 0.0 0.0 0.0 0.0 0.0 0.0 0.0 0.0 0.0 0.0 0.0 0.0 0.0 0.0 0.0 0.0 0.0 0.0 0.0 0.0 0.0 0.0 0.0 0.0 0.0 0.0 0.0 0.0 0.0 0.0 0.0 0.0 0.0
0.7 0.4 0.3 0.3 0.1 0.1 0.0 0.0 0.0 0.0 0.0 0.0 0.0 0.0 0.0 0.0 0.0 0.0 0.0 0.0 0.0 0.0 0.0 0.0 0.0 0.0 0.0 0.0 0.0 0.0 0.0 0.0 0.0 0.0 0.0 0.0 0.0 0.0 0.0 0.0 0.0 0.0 0.0
2.2 1.2 0.8 1.0 0.5 0.2 0.1 0.1 0.0 0.0 0.0 0.0 0.0 0.0 0.0 0.0 0.0 0.0 0.0 0.0 0.0 0.0 0.0 0.0 0.0 0.0 0.0 0.0 0.0 0.0 0.0 0.0 0.0 0.0 0.0 0.0 0.0 0.0 0.0 0.0 0.0 0.0 0.0
3.5 3.1 3.5 1.8 0.8 0.5 0.2 0.2 0.2 0.2 0.2 0.1 0.0 0.0 0.0 0.0 0.0 0.0 0.0 0.0 0.0 0.0 0.0 0.0 0.0 nan nan nan 0.0 0.0 0.0 0.0 0.0 0.0 0.0 0.0 0.0 0.0 0.0 0.0 0.0 0.0 0.0
4.9 6.5 3.3 2.8 2.7 1.8 1.3 0.9 0.9 0.6 1.1 2.6 0.6 0.4 0.9 0.5 nan nan 0.0 0.3 0.1 0.0 0.0 0.0 0.0 0.0 0.0 nan nan nan nan 0.0 0.0 0.0 0.0 0.0 0.0 0.0 0.0 0.0 0.0 0.0 0.1
2.0 6.7 4.9 4.3 7.1 4.8 1.9 1.9 2.1 2.9 2.2 2.0 2.3 2.3 2.5 1.9 nan nan nan 2.0 2.6 2.5 1.5 0.6 0.5 0.2 nan 0.0 nan nan nan nan nan 0.0 0.0 0.0 0.0 0.0 0.0 0.0 0.0 0.0 0.1
0.3 1.3 3.9 4.5 6.7 8.3 5.7 5.8 6.2 4.1 4.2 3.0 3.2 3.5 2.8 3.6 nan nan nan 4.6 3.6 3.8 3.9 3.5 2.8 2.4 1.7 0.5 0.6 1.1 1.5 1.3 1.0 0.8 0.7 1.2 0.8 0.1 0.0 0.0 0.0 0.0 0.3
0.2 0.4 0.5 2.4 5.2 5.3 6.9 7.9 6.2 6.1 6.0 5.7 3.1 3.5 3.3 2.8 nan nan 2.2 3.6 5.1 6.1 4.3 3.4 2.8 3.4 nan nan 2.9 3.6 4.3 7.6 nan nan nan nan nan nan nan 0.3 0.6 0.5 2.1
1.1 0.7 0.3 0.2 0.7 1.4 2.5 4.6 4.9 3.3 5.0 4.0 3.7 3.5 nan 4.2 nan nan nan 1.8 2.6 3.4 3.1 3.1 nan 3.0 nan nan 1.9 2.2 3.7 9.2 6.4 6.0 6.1 6.6 nan nan nan 1.0 0.8 0.9 3.1
2.0 0.7 1.0 0.7 0.7 0.6 0.6 0.9 1.0 1.0 1.3 2.0 2.6 2.9 2.8 2.7 3.1 nan nan 4.0 5.4 4.5 5.3 6.3 5.6 nan nan nan nan 4.9 10.9 12.0 10.0 10.8 10.3 10.6 9.3 8.7 8.7 8.4 6.4 4.3 4.4
4.2 4.3 3.6 2.9 2.4 1.7 1.5 1.5 1.2 1.0 0.9 1.1 0.9 1.0 1.4 1.2 nan nan nan nan nan 3.7 6.3 6.1 7.1 nan nan nan 3.8 nan nan 4.0 11.2 12.1 11.3 11.5 10.0 9.5 9.3 9.4 9.0 8.3 8.3
5.7 6.5 6.3 4.7 5.2 4.1 3.6 3.5 3.0 1.9 2.5 2.9 2.5 3.0 3.4 2.2 2.5 nan nan nan nan 3.3 4.7 8.9 nan nan nan 1.5 nan nan 3.4 6.5 7.9 9.4 9.7 10.7 9.3 7.1 4.9 5.5 4.5 5.0 6.0
4.1 4.3 5.6 6.7 5.9 6.5 5.2 5.0 5.3 5.0 5.5 5.4 5.1 5.9 5.1 4.5 4.4 3.8 4.1 3.9 2.0 4.5 1.9 4.9 3.2 4.0 3.0 4.4 4.9 6.1 6.6 6.5 7.2 7.8 6.8 5.1 3.9 3.4 3.0 2.6 3.3 3.5 4.1
1.8 2.6 2.1 2.0 3.3 3.9 5.2 5.7 4.9 6.1 5.3 5.1 6.7 6.5 9.6 10.9 12.6 9.0 8.9 7.8 6.3 5.8 4.2 5.7 5.1 4.1 4.3 4.4 4.3 4.5 3.8 3.7 5.0 6.0 5.6 4.7 3.8 2.7 2.5 1.7 2.3 3.4 4.2
0.7 1.3 2.0 2.0 2.3 2.6 3.0 3.7 nan nan nan nan nan 4.9 8.5 nan nan nan nan nan nan nan 4.1 6.6 11.3 11.3 8.1 6.1 6.5 6.1 5.3 4.2 4.5 4.1 4.6 3.5 3.8 4.5 4.0 3.4 3.3 3.8 3.7
0.1 0.1 0.8 1.0 1.1 1.9 2.3 2.2 3.9 5.9 nan nan nan nan nan nan nan nan nan nan nan nan 7.8 8.4 11.9 11.8 7.2 4.4 4.7 4.6 6.0 5.3 2.6 3.5 3.9 4.6 4.5 3.8 4.3 3.6 3.8 3.2 3.2
0.7 1.1 1.8 2.1 2.4 3.4 3.8 4.5 4.8 6.1 8.3 8.2 nan nan nan nan nan nan nan nan 3.5 nan 3.5 5.7 8.6 6.9 3.9 3.5 3.6 3.9 3.9 4.7 4.8 4.0 5.9 8.2 9.6 6.5 5.9 4.3 3.8 5.7 3.2
1.2 2.4 3.4 4.6 5.7 5.8 5.6 5.4 5.0 6.1 7.2 7.4 6.0 3.5 3.6 nan nan nan nan 5.4 5.7 3.7 2.4 2.2 4.3 3.6 2.6 1.6 6.5 7.5 10.1 8.9 9.0 12.0 6.8 7.2 16.0 4.2 4.8 3.8 4.1 3.0 2.9
4.3 3.7 5.0 6.2 6.4 6.8 6.5 5.7 4.9 5.1 5.9 6.2 5.9 6.3 3.7 2.5 10.7 15.4 13.9 14.9 9.9 4.8 4.6 2.7 2.7 3.2 4.7 4.4 9.1 15.0 12.5 12.0 8.7 6.0 12.9 18.7 16.0 7.1 7.0 5.9 7.0 6.9 2.2
4.0 3.9 1.6 3.7 3.5 3.5 3.9 4.6 3.5 4.5 4.9 4.3 7.0 10.2 2.3 4.0 6.8 6.7 5.5 9.7 8.0 5.0 8.2 4.1 5.7 7.2 8.7 9.0 4.2 8.7 3.7 7.7 7.0 7.2 6.4 6.5 30.5 8.9 4.7 4.7 5.4 3.9 2.4
2.3 2.2 2.2 2.8 2.4 4.3 3.2 2.4 3.8 3.7 3.7 4.5 5.5 14.2 3.6 7.4 5.2 5.3 5.4 9.4 11.4 6.0 4.9 5.8 4.5 4.0 4.6 5.4 6.1 17.6 13.4 18.0 13.3 9.7 8.7 8.7 6.2 6.0 5.6 5.3 7.1 7.5 4.0
2.1 3.7 2.1 1.7 2.1 5.6 6.0 3.1 5.6 6.8 6.1 8.3 5.8 5.7 5.7 9.2 9.0 6.0 7.8 12.8 6.8 8.2 7.2 5.9 11.0 6.7 6.7 9.4 9.4 7.9 10.5 9.0 9.2 10.7 13.3 13.0 7.2 7.2 9.6 8.6 5.9 8.3 8.1
2.5 3.9 2.5 5.0 7.1 4.4 10.3 14.7 9.6 7.3 6.6 9.6 15.4 11.8 9.2 9.5 18.5 14.8 15.5 18.2 11.8 15.2 15.2 15.7 7.5 6.1 5.5 16.1 16.5 9.3 5.8 10.4 8.6 9.5 9.8 12.7 8.1 5.5 9.2 7.1 6.6 8.2 9.6
6.2 9.2 9.3 6.4 9.5 12.3 16.5 12.8 13.9 15.2 13.7 16.2 19.1 14.9 5.7 8.1 8.1 20.1 16.5 12.0 10.2 16.4 9.0 11.4 9.5 6.8 8.0 7.4 7.0 3.9 5.4 4.6 9.0 5.1 10.8 8.2 9.8 9.2 9.1 7.6 8.9 7.0 8.4
6.3 4.8 6.0 6.1 6.8 11.1 13.3 19.8 20.2 17.7 17.2 19.3 19.0 19.4 14.4 10.3 9.7 17.9 13.0 12.1 10.6 10.0 9.3 10.2 9.1 7.3 6.6 6.6 4.8 5.6 5.4 5.0 13.7 5.4 17.4 9.2 12.5 11.1 10.3 8.8 6.9 9.3 5.9

GFSGL_prec_sndepth_129.txt.gz
Snowfall_Accumulation
0.1 0.0 0.0 0.1 0.0 0.0 0.0 0.0 0.0 0.0 0.0 0.0 0.0 0.0 0.0 0.0 0.0 0.0 0.0 0.0 0.0 0.0 0.0 0.0 0.0 0.0 0.0 0.0 0.0 0.0 0.0 0.0 0.0 0.0 0.0 0.0 0.0 0.0 0.0 0.0 0.0 0.0 0.0
0.2 0.1 0.2 0.2 0.1 0.1 0.1 0.1 0.0 0.0 0.0 0.0 0.0 0.0 0.0 0.0 0.0 0.0 0.0 0.0 0.0 0.0 0.0 0.0 0.0 0.0 0.0 0.0 0.0 0.0 0.0 0.0 0.0 0.0 0.0 0.0 0.0 0.0 0.0 0.0 0.0 0.0 0.0
0.8 0.6 0.6 0.7 0.4 0.3 0.1 0.1 0.1 0.0 0.0 0.0 0.0 0.0 0.0 0.0 0.0 0.0 0.0 0.0 0.0 0.0 0.0 0.0 0.0 0.0 0.0 0.0 0.0 0.0 0.0 0.0 0.0 0.0 0.0 0.0 0.0 0.0 0.0 0.0 0.0 0.0 0.0
2.3 1.6 1.2 1.7 1.3 0.9 0.4 0.5 0.1 0.0 0.0 0.0 0.0 0.0 0.0 0.0 0.0 0.0 0.0 0.0 0.0 0.0 0.0 0.0 0.0 0.0 0.0 0.0 0.0 0.0 0.0 0.0 0.0 0.0 0.0 0.0 0.0 0.0 0.0 0.0 0.0 0.0 0.0
3.5 3.4 4.5 2.7 1.8 1.1 1.0 0.4 0.3 0.4 0.3 0.3 0.1 0.1 0.0 0.0 0.0 0.0 0.0 0.0 0.0 0.0 0.0 0.0 0.0 nan nan nan 0.0 0.0 0.0 0.0 0.0 0.0 0.0 0.0 0.0 0.0 0.0 0.0 0.0 0.0 0.0
4.8 6.5 3.3 2.8 2.8 1.9 1.5 1.2 1.0 0.7 1.2 2.9 1.4 1.2 1.6 0.6 nan nan 0.0 0.2 0.1 0.0 0.0 0.0 0.0 0.0 0.0 nan nan nan nan 0.0 0.0 0.0 0.0 0.0 0.0 0.0 0.0 0.0 0.0 0.0 0.1
2.0 6.6 4.8 4.3 7.1 4.8 1.9 1.9 2.1 3.0 2.3 2.4 2.8 3.0 3.8 3.5 nan nan nan 1.9 2.6 2.5 1.5 0.6 0.4 0.2 nan 0.0 nan nan nan nan nan 0.0 0.3 0.8 0.3 0.1 0.0 0.0 0.0 0.0 0.1
0.3 1.3 3.9 4.5 6.7 8.3 5.7 5.8 6.2 4.0 4.1 3.0 3.3 3.6 3.0 4.2 nan nan nan 5.4 4.1 4.5 4.7 4.0 3.0 2.9 2.2 0.6 0.8 2.1 2.5 2.3 2.5 2.1 2.1 2.8 1.4 1.0 0.5 0.1 0.0 0.0 0.3
0.2 0.4 0.5 2.4 5.2 5.3 6.9 7.9 6.2 6.1 5.9 5.7 3.1 3.5 3.3 2.8 nan nan 2.7 4.5 6.1 7.4 5.8 4.7 4.4 4.9 nan nan 4.0 4.6 5.5 9.9 nan nan nan nan nan nan nan 1.0 1.6 0.7 2.0
1.1 0.7 0.3 0.2 0.7 1.4 2.5 4.6 4.9 3.3 5.0 4.0 3.7 3.5 nan 4.2 nan nan nan 1.8 2.7 3.7 3.3 3.5 nan 3.4 nan nan 2.4 2.7 4.6 11.1 7.7 7.3 7.7 8.5 nan nan nan 2.0 1.1 1.2 3.4
2.0 0.7 1.0 0.7 0.7 0.6 0.6 0.9 1.0 1.0 1.3 1.9 2.6 2.9 2.8 2.7 3.1 nan nan 4.0 5.4 4.5 5.4 6.4 5.7 nan nan nan nan 5.1 11.3 12.2 10.1 11.1 10.5 11.0 10.0 9.6 9.5 9.1 6.9 4.7 4.8
4.2 4.3 3.7 2.9 2.4 1.7 1.5 1.5 1.2 1.0 0.9 1.1 0.9 1.0 1.4 1.2 nan nan nan nan nan 3.7 6.3 6.1 7.0 nan nan nan 3.8 nan nan 4.0 11.2 12.2 11.3 11.5 10.1 9.6 9.3 9.5 9.2 8.6 8.7
5.7 6.5 6.3 4.7 5.2 4.1 3.6 3.5 3.0 1.9 2.5 2.9 2.5 3.0 3.3 2.1 2.5 nan nan nan nan 3.3 4.7 8.8 nan nan nan 1.5 nan nan 3.4 6.5 7.9 9.4 9.8 10.7 9.3 7.1 4.9 5.5 4.5 4.9 6.0
4.1 4.3 5.6 6.7 5.9 6.6 5.2 5.0 5.3 5.0 5.5 5.3 5.1 6.0 5.1 4.5 4.4 3.8 4.1 3.9 2.0 4.4 1.9 4.9 3.2 4.0 3.0 4.4 4.9 6.0 6.6 6.5 7.2 7.9 6.8 5.1 3.9 3.4 3.0 2.6 3.3 3.5 4.1
1.8 2.6 2.1 2.0 3.3 3.9 5.3 5.8 4.9 6.0 5.3 5.1 6.7 6.5 9.6 10.9 12.5 8.9 8.9 7.8 6.3 5.7 4.2 5.7 5.0 4.1 4.3 4.4 4.3 4.5 3.8 3.7 5.0 6.0 5.6 4.7 3.8 2.7 2.5 1.7 2.3 3.4 4.2
0.6 1.3 2.0 2.0 2.3 2.6 3.0 3.7 nan nan nan nan nan 4.9 8.5 nan nan nan nan nan nan nan 4.1 6.6 11.3 11.2 8.1 6.1 6.5 6.1 5.3 4.2 4.5 4.1 4.6 3.5 3.8 4.6 4.0 3.4 3.3 3.8 3.7
0.1 0.1 0.8 1.0 1.1 1.9 2.3 2.2 3.9 5.9 nan nan nan nan nan nan nan nan nan nan nan nan 7.8 8.4 11.9 11.8 7.3 4.4 4.7 4.6 6.0 5.3 2.6 3.5 3.9 4.6 4.5 3.8 4.4 3.6 3.8 3.2 3.2
0.7 1.1 1.8 2.1 2.4 3.4 3.8 4.5 4.8 6.1 8.3 8.2 nan nan nan nan nan nan nan nan 3.5 nan 3.5 5.7 8.6 6.9 3.9 3.5 3.6 3.9 3.9 4.7 4.8 4.0 5.9 8.2 9.6 6.6 5.9 4.4 3.8 5.8 3.2
1.2 2.4 3.4 4.6 5.7 5.8 5.6 5.4 5.0 6.1 7.2 7.4 6.0 3.5 3.6 nan nan nan nan 5.4 5.7 3.7 2.4 2.2 4.4 3.6 2.6 1.5 6.5 7.5 10.1 8.9 9.0 12.0 6.8 7.2 16.0 4.2 4.8 3.8 4.1 3.0 2.9
4.3 3.7 5.0 6.2 6.4 6.8 6.5 5.7 4.9 5.1 5.9 6.2 6.0 6.3 3.7 2.5 10.7 15.4 13.9 14.9 9.9 4.8 4.6 2.7 2.7 3.1 4.7 4.4 9.1 15.0 12.5 12.0 8.7 5.9 12.9 18.7 16.0 7.1 7.0 5.9 7.0 7.0 2.2
4.0 4.0 1.6 3.7 3.5 3.5 3.9 4.6 3.5 4.5 4.9 4.3 7.0 10.2 2.3 4.0 6.8 6.7 5.5 9.7 8.1 5.0 8.2 4.1 5.7 7.2 8.7 9.0 4.2 8.7 3.7 7.7 7.0 7.2 6.4 6.5 30.5 8.9 4.7 4.7 5.4 4.0 2.4
2.3 2.2 2.2 2.8 2.4 4.3 3.2 2.4 3.8 3.7 3.7 4.6 5.6 14.2 3.6 7.4 5.2 5.4 5.4 9.4 11.5 6.1 5.0 5.9 4.5 4.0 4.6 5.4 6.1 17.6 13.4 18.0 13.3 9.7 8.7 8.7 6.2 6.0 5.7 5.3 7.1 7.6 4.0
2.1 3.8 2.1 1.7 2.1 5.6 6.0 3.1 5.6 6.8 6.1 8.3 5.8 5.8 5.7 9.3 9.0 6.0 7.8 12.8 6.8 8.2 7.3 6.0 11.1 6.8 6.7 9.4 9.4 7.9 10.4 9.0 9.2 10.7 13.3 13.0 7.2 7.2 9.6 8.7 5.9 8.3 8.1
2.5 3.9 2.5 5.1 7.1 4.4 10.3 14.7 9.6 7.3 6.7 9.6 15.4 11.8 9.2 9.6 18.5 14.7 15.5 18.2 11.8 15.2 15.2 15.9 7.7 6.2 5.5 16.0 16.5 9.3 5.8 10.4 8.6 9.5 9.8 12.7 8.1 5.5 9.2 7.1 6.6 8.3 9.6
6.2 9.2 9.3 6.4 9.5 12.3 16.5 12.8 13.9 15.2 13.7 16.2 19.1 14.9 5.7 8.1 8.2 20.0 16.5 12.0 10.2 16.4 9.0 11.4 9.5 6.9 8.1 7.4 7.1 4.0 5.4 4.6 9.0 5.1 10.8 8.2 9.8 9.2 9.1 7.6 8.9 7.1 8.4
6.3 4.8 6.0 6.1 6.8 11.1 13.3 19.8 20.2 17.7 17.2 19.3 19.0 19.4 14.4 10.3 9.7 17.9 13.0 12.1 10.6 10.0 9.3 10.2 9.1 7.3 6.6 6.6 4.9 5.6 5.4 5.0 13.6 5.4 17.4 9.2 12.5 11.1 10.3 8.9 6.9 9.3 5.9

GFSGL_prec_sndepth_132.txt.gz
Snowfall_Accumulation
0.1 0.0 0.0 0.2 0.3 0.3 0.3 0.2 0.1 0.0 0.0 0.0 0.0 0.0 0.0 0.0 0.0 0.0 0.0 0.0 0.0 0.0 0.0 0.0 0.0 0.0 0.0 0.0 0.0 0.0 0.0 0.0 0.0 0.0 0.0 0.0 0.0 0.0 0.0 0.0 0.0 0.0 0.0
0.2 0.3 0.6 0.7 0.7 0.6 0.6 0.4 0.1 0.1 0.0 0.0 0.0 0.0 0.0 0.0 0.0 0.0 0.0 0.0 0.0 0.0 0.0 0.0 0.0 0.0 0.0 0.0 0.0 0.0 0.0 0.0 0.0 0.0 0.0 0.0 0.0 0.0 0.0 0.0 0.0 0.0 0.0
0.9 1.3 1.7 1.7 1.0 0.9 0.7 0.6 0.2 0.2 0.1 0.1 0.0 0.0 0.0 0.0 0.0 0.0 0.0 0.0 0.0 0.0 0.0 0.0 0.0 0.0 0.0 0.0 0.0 0.0 0.0 0.0 0.0 0.0 0.0 0.0 0.0 0.0 0.0 0.0 0.0 0.0 0.0
2.4 2.1 1.9 2.8 2.8 2.6 1.6 1.3 0.3 0.1 0.1 0.1 0.0 0.0 0.0 0.0 0.0 0.0 0.0 0.0 0.0 0.0 0.0 0.0 0.0 0.0 0.0 0.0 0.0 0.0 0.0 0.0 0.0 0.0 0.0 0.0 0.0 0.0 0.0 0.0 0.0 0.0 0.0
3.5 3.4 4.6 3.3 2.5 1.5 1.6 0.8 0.3 0.5 0.4 0.3 0.1 0.1 0.1 0.1 0.1 0.0 0.0 0.1 0.1 0.1 0.2 0.0 0.0 nan nan nan 0.0 0.0 0.0 0.0 0.0 0.0 0.0 0.0 0.0 0.0 0.0 0.0 0.0 0.0 0.0
4.8 6.4 3.3 2.8 2.8 1.9 1.5 1.2 1.0 0.7 1.2 2.9 1.4 1.2 1.8 0.9 nan nan 0.1 0.3 0.2 0.7 0.5 0.0 0.0 0.0 0.0 nan nan nan nan 0.0 0.0 0.0 0.0 0.0 0.0 0.0 0.0 0.0 0.0 0.0 0.0
1.9 6.6 4.8 4.3 7.1 4.8 1.9 1.9 2.1 3.0 2.2 2.4 2.8 2.9 3.8 3.7 nan nan nan 2.2 2.7 2.6 1.6 0.6 0.4 0.3 nan 0.0 nan nan nan nan nan 0.0 0.4 1.0 0.6 0.4 0.2 0.0 0.0 0.0 0.1
0.3 1.3 3.9 4.5 6.7 8.3 5.6 5.8 6.1 4.0 4.1 3.0 3.3 3.6 2.9 4.2 nan nan nan 6.2 4.9 5.1 5.2 4.2 3.1 3.0 2.5 0.7 0.8 2.1 2.5 2.3 2.8 2.9 2.7 3.3 2.2 1.8 0.9 0.2 0.3 0.1 0.3
0.2 0.3 0.5 2.4 5.2 5.3 6.9 7.9 6.2 6.0 5.9 5.7 3.1 3.5 3.3 2.7 nan nan 2.7 4.5 6.1 7.5 6.0 5.1 5.4 6.0 nan nan 4.4 5.2 5.9 10.2 nan nan nan nan nan nan nan 1.4 2.6 0.6 1.9
1.1 0.7 0.3 0.2 0.7 1.3 2.5 4.6 4.9 3.3 5.0 3.9 3.7 3.5 nan 4.1 nan nan nan 1.9 2.8 3.9 3.4 3.7 nan 3.6 nan nan 2.9 3.8 5.9 12.9 9.1 8.3 8.8 9.4 nan nan nan 3.5 2.9 3.4 5.5
2.0 0.7 1.0 0.7 0.7 0.6 0.5 0.9 0.9 1.0 1.3 1.9 2.6 2.9 2.8 2.7 3.0 nan nan 4.0 5.4 4.5 5.5 6.5 5.8 nan nan nan nan 5.3 11.6 12.3 10.1 11.2 10.8 11.2 10.4 10.4 10.7 10.5 8.6 6.3 6.5
4.2 4.3 3.7 2.9 2.4 1.7 1.5 1.4 1.2 1.0 0.9 1.1 0.9 1.0 1.4 1.2 nan nan nan nan nan 3.7 6.3 6.1 7.0 nan nan nan 3.9 nan nan 4.0 11.2 12.2 11.3 11.5 10.1 9.5 9.3 9.5 9.3 9.4 9.5
5.7 6.5 6.3 4.7 5.2 4.1 3.6 3.5 3.0 1.9 2.5 2.9 2.5 3.0 3.3 2.1 2.5 nan nan nan nan 3.3 4.6 8.8 nan nan nan 1.5 nan nan 3.4 6.5 7.9 9.5 9.8 10.7 9.3 7.1 4.8 5.5 4.5 4.9 6.0
4.1 4.3 5.6 6.7 5.9 6.6 5.2 5.0 5.2 5.0 5.5 5.3 5.1 6.0 5.1 4.5 4.4 3.8 4.0 3.9 2.0 4.4 1.8 4.9 3.2 4.0 3.0 4.4 4.9 6.0 6.5 6.5 7.2 7.9 6.9 5.1 3.9 3.4 3.0 2.6 3.3 3.5 4.1
1.8 2.6 2.1 1.9 3.3 4.0 5.3 5.8 4.8 6.0 5.2 5.1 6.6 6.5 9.6 10.9 12.5 8.8 8.8 7.7 6.3 5.7 4.1 5.7 5.0 4.1 4.3 4.3 4.3 4.4 3.8 3.6 5.0 6.0 5.6 4.7 3.8 2.7 2.5 1.7 2.3 3.4 4.2
0.6 1.3 2.0 2.0 2.3 2.6 3.0 3.7 nan nan nan nan nan 4.8 8.5 nan nan nan nan nan nan nan 4.1 6.6 11.2 11.2 8.1 6.1 6.5 6.1 5.3 4.2 4.5 4.1 4.6 3.5 3.8 4.6 4.0 3.4 3.3 3.8 3.7
0.1 0.1 0.8 1.0 1.1 1.9 2.3 2.2 3.9 5.9 nan nan nan nan nan nan nan nan nan nan nan nan 7.8 8.4 11.9 11.8 7.2 4.3 4.7 4.5 6.0 5.3 2.5 3.5 3.9 4.6 4.5 3.8 4.4 3.6 3.8 3.2 3.2
0.7 1.1 1.8 2.1 2.4 3.4 3.8 4.5 4.8 6.1 8.3 8.2 nan nan nan nan nan nan nan nan 3.5 nan 3.5 5.7 8.6 6.8 3.9 3.5 3.6 3.9 3.9 4.7 4.8 4.0 5.9 8.2 9.6 6.6 5.9 4.4 3.8 5.8 3.2
1.2 2.4 3.4 4.6 5.7 5.8 5.6 5.4 5.0 6.1 7.3 7.4 6.0 3.5 3.6 nan nan nan nan 5.4 5.7 3.7 2.4 2.2 4.4 3.6 2.6 1.5 6.5 7.5 10.1 8.8 9.0 12.0 6.8 7.2 16.0 4.2 4.8 3.8 4.1 3.0 2.9
4.3 3.7 5.0 6.2 6.4 6.8 6.5 5.7 4.9 5.1 5.9 6.2 6.0 6.4 3.8 2.5 10.7 15.4 13.9 14.9 9.9 4.9 4.6 2.7 2.7 3.1 4.7 4.4 9.1 14.9 12.4 12.0 8.7 5.9 12.9 18.6 16.0 7.1 7.1 6.0 7.1 7.0 2.2
4.0 4.0 1.6 3.7 3.5 3.5 3.9 4.6 3.5 4.5 4.9 4.3 7.0 10.2 2.3 4.0 6.8 6.7 5.6 9.7 8.1 5.0 8.2 4.1 5.7 7.3 8.7 9.0 4.2 8.7 3.7 7.7 7.0 7.2 6.4 6.5 30.4 8.9 4.7 4.8 5.4 4.0 2.4
2.3 2.2 2.2 2.8 2.4 4.3 3.2 2.4 3.8 3.8 3.7 4.6 5.6 14.2 3.6 7.4 5.2 5.4 5.4 9.4 11.5 6.1 5.0 6.0 4.5 4.2 4.7 5.5 6.1 17.6 13.3 18.0 13.3 9.7 8.7 8.7 6.2 6.0 5.7 5.3 7.1 7.6 4.0
2.1 3.8 2.1 1.7 2.1 5.6 6.0 3.1 5.6 6.8 6.1 8.3 5.8 5.8 5.7 9.3 9.0 6.0 7.8 12.8 6.8 8.2 7.3 6.0 11.1 6.8 6.7 9.4 9.5 8.0 10.5 9.0 9.2 10.7 13.3 13.0 7.3 7.2 9.6 8.7 5.9 8.4 8.2
2.5 3.9 2.5 5.1 7.1 4.4 10.3 14.7 9.6 7.3 6.7 9.6 15.4 11.8 9.2 9.6 18.5 14.7 15.5 18.2 11.8 15.2 15.2 15.9 7.7 6.2 5.6 16.0 16.5 9.3 5.9 10.4 8.6 9.5 9.8 12.7 8.2 5.6 9.2 7.1 6.6 8.3 9.6
6.2 9.2 9.3 6.4 9.5 12.3 16.5 12.8 13.9 15.2 13.7 16.2 19.1 14.9 5.7 8.2 8.2 20.0 16.5 12.0 10.2 16.4 9.0 11.4 9.5 6.9 8.1 7.4 7.1 4.0 5.5 4.7 9.0 5.1 10.8 8.2 9.9 9.2 9.1 7.6 8.9 7.1 8.4
6.3 4.8 6.0 6.1 6.8 11.1 13.3 19.8 20.2 17.7 17.2 19.3 19.0 19.3 14.4 10.3 9.7 17.9 13.0 12.1 10.6 10.0 9.3 10.2 9.1 7.3 6.6 6.6 4.9 5.6 5.4 5.0 13.7 5.4 17.4 9.2 12.5 11.1 10.3 8.9 6.9 9.3 5.9